Regional Weather Roundup
Issued by NWS

Home | Current Version | Previous Version | Graphics & Text | Print | Product List | Glossary On
Versions: 1 2 3 4 5 6 7 8 9 10 11 12 13 14 15 16 17 18 19 20 21 22 23 24 25 26 27 28 29 30 31 32 33 34 35 36 37 38 39 40 41 42 43 44 45 46 47 48 49 50
000
ASUS43 KOAX 221010
RWRNE

WEATHER ROUNDUP FOR NEBRASKA
NATIONAL WEATHER SERVICE OMAHA NE
500 AM CDT WED OCT 22 2014

NOTES: SATELLITE DATA IS BEING USED TO AUGMENT CLOUD COVER ABOVE
       12000 FEET.
       "FAIR" INDICATES FEW OR NO CLOUDS BELOW 12,000 FEET WITH NO
       SIGNIFICANT WEATHER AND/OR OBSTRUCTIONS TO VISIBILITY.

  * THESE STATIONS DO NOT REPORT WEATHER SUCH AS RAIN...SNOW OR FOG.

NEZ001>004-019>022-054>056-221100-
NEBRASKA PANHANDLE

CITY           SKY/WX    TMP DP  RH WIND       PRES   REMARKS
SCOTTSBLUFF    CLOUDY    53  52  96 NW5       29.93F
ALLIANCE       CLOUDY    56  48  74 W13       29.92R
CHADRON        CLOUDY    57  49  74 SW6       29.89F
KIMBALL        CLOUDY    51  48  90 NW5       29.96S
SIDNEY         CLOUDY    55  45  68 NW10      29.96R
$$

NEZ057>060-069>072-079>082-221100-
SOUTHWEST NEBRASKA

CITY           SKY/WX    TMP DP  RH WIND       PRES   REMARKS
NORTH PLATTE   CLOUDY    61  50  67 S10       29.90S
IMPERIAL       MOCLDY    57  46  66 CALM      29.92R
LEXINGTON      MOCLDY    61  53  74 S14       29.93S
MCCOOK         MOCLDY    59  50  72 S9        29.93S
OGALLALA       MOCLDY    51  46  82 CALM      29.92R
$$

NEZ005>010-023>029-035>040-094-221100-
NORTH CENTRAL NEBRASKA

CITY           SKY/WX    TMP DP  RH WIND       PRES   REMARKS
VALENTINE      MOCLDY    61  52  72 S8        29.85R
AINSWORTH      MOCLDY    58  53  83 S15       29.87S
BROKEN BOW     PTCLDY    57  53  86 SE7       29.93S
O`NEILL        CLEAR     56  50  80 S15       29.92F
ORD            PTCLDY    53  51  93 SE8       29.94S
THEDFORD       CLOUDY    62  52  70 S12       29.90R
$$

NEZ041-046>049-061>064-073>077-083>087-221100-
SOUTH CENTRAL NEBRASKA

CITY           SKY/WX    TMP DP  RH WIND       PRES   REMARKS
GRAND ISLAND   CLEAR     57  53  86 S16G24    29.99S
AURORA         CLEAR     55  51  86 SE10G17   30.01S FOG
HASTINGS       CLEAR     57  53  86 SE13      30.00R
HEBRON         CLEAR     58  52  80 S10       30.04R
HOLDREGE       CLEAR     56  52  88 S8        29.96F
KEARNEY *      CLEAR     55  52  88 SE12      29.98S
YORK           CLEAR     54  46  76 SE12      30.03S
$$

NEZ011>018-030>034-042>045-221100-
NORTHEAST NEBRASKA

CITY           SKY/WX    TMP DP  RH WIND       PRES   REMARKS
NORFOLK        CLEAR     57  44  62 SE15      30.00S
ALBION         CLEAR     54  45  73 SE7       29.99S
BLAIR          CLEAR     56  45  66 SE13      30.08S
COLUMBUS *     CLEAR     57  43  58 SE14      30.04S
FREMONT        CLEAR     56  45  66 SE14G20   30.06S
TEKAMAH        CLEAR     53  44  71 SE12      30.08S
WAYNE          PTCLDY    54  44  69 S16       30.02S
$$

NEZ050>053-065>068-078-088>093-221100-
SOUTHEAST NEBRASKA

CITY           SKY/WX    TMP DP  RH WIND       PRES   REMARKS
LINCOLN        MOCLDY    56  43  61 SE12      30.08S
OMAHA EPPLEY   MOCLDY    55  44  66 SE15      30.10S
BEATRICE       CLEAR     55  45  67 SE9       30.07R
FALLS CITY     CLOUDY    55  45  68 SE9       30.11R
NEBRASKA CITY  CLEAR     53  41  63 SE10      30.11R
PLATTSMOUTH    CLEAR     54  43  66 SE10      30.10S
$$

NEZ044-045-051>053-067-221100-
OMAHA AREA

CITY           SKY/WX    TMP DP  RH WIND       PRES   REMARKS
OMAHA EPPLEY   MOCLDY    55  44  66 SE15      30.10S
BLAIR          CLEAR     56  45  66 SE13      30.08S
FREMONT        CLEAR     56  45  66 SE14G20   30.06S
MILLARD        CLEAR     53  45  76 SE6       30.09S
OFFUTT AFB     PTCLDY    53  49  86 E10       30.10R
PLATTSMOUTH    CLEAR     54  43  66 SE10      30.10S
WAHOO          FAIR      54  44  69 SE12      30.07S
$$



USA.gov is the U.S. government's official web portal to all federal, state and local government web resources and services.